Torna al catalogo

CZ-4 DEB

AttivoPO
NORAD 20900·DEBRIS·🇨🇳 China

Lanciato Sep 3, 1990 da Taiyuan Satellite Launch Center

Loading…

Prossimi Passaggi (prossime 24 ore)

TLE

AggiornatoSource: Space-Track

Epoca: Sep 14, 2026, 06:38 UTC

1 20900U 90081BL  26257.27707701  .00020213  00000-0  20285-2 0  9999
2 20900  99.0350 359.3070 0018239 239.4574 144.8095 14.91228825861573

Traccia CZ-4 DEB in tempo reale con AllMySat

Download on the App Store